Location: Bodelwitz
(50.6862°N, 11.6235°E)
Time: 17:55:10
(UTC+00:00)

Daily predictions for brighter satellites

Satellite Brightness Start Highest point End
(mag) Time Altitude Azimuth Time Altitude Azimuth Time Altitude Azimuth
Cosmos 1455 2.5 20:07:27 10° NNW 20:11:17 70° W 20:15:07 10° S
Cosmos 1825 Rocket 3.7 20:12:41 10° S 20:17:03 60° E 20:21:29 10° NNE
ATLAS CENTAUR R/B 1.7 20:14:42 10° NNW 20:18:21 49° NE 20:21:54 10° ESE
Cosmos 1703 3.2 20:17:45 10° S 20:21:37 73° E 20:25:31 10° NNE
COSMOS 2428 3.6 20:17:53 10° SSE 20:22:43 30° ESE 20:27:36 10° NE
Cosmos 1844 3.9 20:17:37 10° NNW 20:23:25 79° WSW 20:29:08 10° SSE
Cosmos 2322 4.0 20:20:59 10° S 20:26:29 50° ESE 20:32:00 10° NE
CZ-4B DEB 4.4 20:28:30 10° SSE 20:31:51 83° ENE 20:35:14 10° NNW
Cosmos 783 Rocket 4.5 20:27:24 10° SSW 20:32:38 77° ESE 20:37:52 10° NNE
Cosmos 1709 Rocket 4.1 20:26:59 10° S 20:33:15 74° E 20:39:37 10° NNE
NOSS 3-3 (A) 4.5 20:29:40 10° S 20:34:59 37° ESE 20:40:55 10° NE
NOSS 3-3 (C) 4.5 20:29:47 10° S 20:35:07 37° ESE 20:41:02 10° NE
Atlas Centaur 2 4.3 20:33:51 10° SSW 20:36:07 12° S 20:38:31 10° SSE
Terra 2.2 20:31:41 10° SE 20:36:19 53° ENE 20:40:58 10° N
Cosmos 2237 Rocket 3.8 20:33:16 10° SE 20:36:42 17° E 20:40:08 10° ENE
CARTOSAT-1 3.6 20:33:08 10° SSE 20:37:27 80° ENE 20:41:47 10° NNW
Cosmos 2333 4.3 20:32:43 10° S 20:38:15 59° ESE 20:43:52 10° NE
Cosmos 2219 Rocket 2.6 20:33:27 10° S 20:38:41 43° ESE 20:43:57 10° NE
Cosmos 2360 Rocket 2.4 20:34:54 10° SSW 20:40:33 79° WNW 20:46:16 10° NNE
IGS 5A 4.2 20:36:39 10° S 20:40:42 51° W 20:44:47 10° NNW
Cosmos 1538 Rocket 4.5 20:36:31 10° S 20:41:33 43° ESE 20:46:34 10° NE
Cosmos 2333 Rocket 2.4 20:42:55 10° S 20:48:26 54° ESE 20:54:01 10° NE
Cosmos 1315 Rocket 2.9 20:46:31 10° N 20:50:37 72° ENE 20:54:13 13° SSE
ATLAS 2AS CENTAUR R/B 3.5 20:43:32 10° NW 20:51:09 55° NE 20:58:09 10° ESE
Resurs 01 Rocket 3.9 20:49:36 10° SW 20:52:50 20° W 20:56:05 10° NW
Cosmos-2242 4.0 20:49:51 10° NNW 20:54:00 44° W 20:58:08 10° SSW
Cosmos 1818 3.8 20:50:28 10° SW 20:55:54 76° NW 21:01:24 10° NE
Cosmos 773 Rocket 4.0 20:53:10 10° SSW 20:58:28 83° ESE 21:03:48 10° NNE
Cosmos 2221 2.9 20:54:46 10° N 20:59:04 52° ENE 21:02:29 15° SSE
SL-16 R/B 4.1 20:54:45 10° WSW 20:59:52 33° NW 21:05:00 10° NNE
ERS-1 Rocket 3.3 20:56:57 10° S 21:01:57 63° WSW 21:06:59 10° NNW
GEOS 3 Rocket 3.7 20:57:01 10° NE 21:02:27 90° SE 21:07:51 10° SW
USA 215 3.3 20:59:19 10° ENE 21:05:47 57° SE 21:12:12 10° SW
Cosmos 2278 Rocket 2.4 21:02:44 10° NNW 21:08:25 70° ENE 21:13:09 15° SE
Cosmos 1892 3.8 21:07:01 17° SE 21:09:13 29° E 21:12:32 10° NNE
ATLAS 5 CENTAUR R/B 2.1 21:08:21 10° SW 21:12:34 64° NW 21:17:24 10° NE
Cosmos 1844 Rocket 4.1 21:08:06 10° NW 21:12:51 29° WSW 21:17:35 10° SSW
Meteor 1-11 4.4 21:07:23 10° SSW 21:13:00 76° WNW 21:18:45 10° N
Gblst 52 Del rocket 4.4 21:09:20 10° WNW 21:14:57 62° SSW 21:20:33 13° SE
Cosmos 1943 Rocket 4.3 21:11:44 10° NNW 21:15:56 21° NE 21:20:06 10° E
SPOT 5 3.5 21:13:56 11° S 21:18:43 51° W 21:23:24 10° NNW
SL-16 R/B 4.0 21:18:56 11° ESE 21:21:07 14° E 21:23:51 10° ENE
Lacrosse 5 rocket 3.1 21:17:18 10° WNW 21:21:08 33° N 21:24:45 10° ENE
Cosmos 2056 Rocket 4.4 21:18:03 10° NNW 21:23:12 41° ENE 21:27:39 13° SE
Nadezhda 3 Rocket 4.3 21:18:00 10° N 21:24:19 59° ENE 21:29:11 17° SSE
USA 81 4.5 21:20:38 10° SSW 21:25:51 63° W 21:31:08 10° N
Cosmos 2058 3.3 21:25:00 19° SSE 21:27:39 47° E 21:31:38 10° NNE
BREEZE M DEB (TANK) 4.0 21:26:51 10° WSW 21:27:39 12° SW 21:27:39 12° SW
Cosmos 2154 Rocket 4.4 21:23:04 16° SSE 21:27:46 50° E 21:33:44 10° NNE
Cosmos 1408 3.6 21:29:05 20° SE 21:30:41 29° E 21:33:50 10° NNE
Meteor 2-17 Rocket 4.5 21:27:26 15° S 21:32:30 67° E 21:38:31 10° NNE
In-Cosmos 22 Rocket 4.2 21:29:55 16° S 21:34:02 62° E 21:39:18 10° NNE
Cosmos 2074 Rocket 4.0 21:29:15 12° S 21:35:02 84° E 21:41:18 10° N
TSX-5 3.6 21:31:43 10° NW 21:35:09 77° WSW 21:37:36 22° SSE
Cosmos 1076 Rocket 3.7 21:36:08 21° SSE 21:38:51 55° E 21:43:03 10° NNE
Cosmos 1680 Rocket 3.9 21:35:41 18° S 21:39:20 46° ESE 21:44:24 10° NE
USA 267 3.3 21:34:04 15° SE 21:39:44 71° SW 21:46:19 10° WNW
CZ-4C R/B 4.2 21:38:27 10° NW 21:44:23 35° NNE 21:51:19 10° E
Cosmos 1842 Rocket 4.3 21:41:37 10° NNW 21:45:49 47° W 21:49:02 16° SSW
JB-3 4.3 21:43:13 10° N 21:47:05 79° WNW 21:49:57 17° SSW
COSMOS 2455 4.2 21:42:47 10° NNW 21:48:20 36° NE 21:53:52 10° ESE
Cosmos 2151 4.0 21:47:18 21° SE 21:49:22 33° E 21:53:12 10° NNE
MTI 4.2 21:48:02 10° N 21:51:04 57° WNW 21:53:10 18° SSW
Cosmos 923 Rocket 4.0 21:52:20 14° SSW 21:56:47 79° ESE 22:02:07 10° NNE
ATLAS CENTAUR R/B 2.8 21:54:07 10° WNW 21:56:56 21° WSW 21:58:26 16° SSW
Cosmos 2327 Rocket 4.4 21:52:14 17° S 21:57:14 85° E 22:03:23 10° N
Cosmos 1825 2.7 21:58:08 27° SSE 21:59:46 43° E 22:03:23 10° NNE
Cosmos 2369 Rocket 4.0 21:55:53 10° NNW 22:00:34 26° NE 22:05:13 10° E
Cosmos 1151 Rocket 4.2 21:56:46 10° N 22:00:43 33° ENE 22:03:13 18° SE
ALOS 2 3.3 21:58:03 20° SE 22:00:44 44° ENE 22:04:56 10° N
Cosmos 1980 3.7 21:56:55 15° SSW 22:01:39 70° ESE 22:07:17 10° NNE
Cosmos 967 Rocket 4.5 21:57:30 10° SSW 22:03:59 82° SE 22:10:29 10° NE
Cosmos 44 4.2 22:05:15 22° SE 22:06:06 23° ESE 22:09:38 10° ENE
COSMOS 2428 3.4 22:01:09 10° SW 22:06:43 56° NW 22:12:20 10° NNE
Cosmos 371 Rocket 4.1 22:03:40 10° NNW 22:08:20 43° ENE 22:11:47 17° SE
GP-B 3.9 22:05:00 10° NNE 22:09:10 38° E 22:11:23 23° SE
Cosmos 1295 Rocket 4.4 22:06:30 20° S 22:10:56 79° E 22:17:03 10° NNE
Cosmos 1624 Rocket 4.0 22:08:32 10° NNW 22:13:49 87° WSW 22:16:57 25° SSE
NOSS 0 Rocket 3.9 22:07:54 10° SSW 22:14:04 87° WNW 22:20:18 10° NNE
Terra 3.6 22:10:37 10° SW 22:14:22 23° W 22:18:09 10° NW
NOSS 3-4 (A) 3.9 22:07:31 10° NW 22:14:24 69° SW 22:19:46 21° SSE
NOSS 3-4 (C) 3.9 22:07:39 10° NW 22:14:31 69° SW 22:19:55 21° SSE
Cosmos 2237 Rocket 2.2 22:14:58 14° SSW 22:19:56 87° ESE 22:25:41 10° NNE
SL-4 R/B 2.5 22:19:54 18° ENE 22:19:58 18° ENE 22:21:32 10° NNE
Genesis I 3.2 22:18:36 27° SSW 22:20:33 59° SE 22:24:24 10° NE
CREW DRAGON DEMO-1 DEB 4.4 22:22:53 22° ESE 22:22:53 22° ESE 22:24:23 10° E
Cosmos 2344 3.6 22:16:02 13° SSW 22:22:38 60° ESE 22:30:36 10° NE
Cosmos 2219 Rocket 3.4 22:17:26 10° WSW 22:22:41 41° NW 22:28:00 10° NNE
Elektron 1 4.4 22:21:21 17° SW 22:23:54 79° SE 22:29:54 10° NE
Cosmos 1346 Rocket 4.5 22:28:04 18° ESE 22:29:22 21° E 22:32:20 10° NE
Thor Agena Rocket 3.6 22:24:34 10° NNE 22:29:43 78° WNW 22:33:19 20° SSW
Cosmos 2333 Rocket 3.8 22:27:46 10° WSW 22:32:58 35° NW 22:38:14 10° NNE
RESURS DK-1 4.4 22:35:36 10° N 22:38:59 24° NE 22:42:22 10° E
Cosmos 1515 Rocket 4.2 22:36:46 10° N 22:41:00 47° ENE 22:43:15 24° SE
BREEZE-M DEB (TANK) 1.9 22:38:17 10° W 22:41:22 38° SW 22:41:22 38° SW
ATLAS 2AS CENTAUR R/B 3.1 22:34:55 10° NW 22:42:13 53° WSW 22:46:25 24° S
EO 1 Del DPAF 3.8 22:39:09 10° N 22:42:51 53° WNW 22:44:59 22° SW
Cosmos 1892 4.5 22:41:59 12° SW 22:44:54 26° WNW 22:48:09 10° NNW
Cosmos 1766 Rocket 3.5 22:44:24 30° S 22:46:30 80° E 22:50:56 10° NNE
Cosmos 1328 Rocket 3.4 22:44:05 10° N 22:48:26 88° ENE 22:50:25 32° S
Aureole 2 Rocket 2.3 22:45:54 10° NW 22:48:38 48° WSW 22:48:59 44° SW
Gbstr 26 Del rocket 4.1 22:49:28 22° SE 22:49:28 22° SE 22:52:07 10° E
USA 215 3.6 22:42:25 10° ENE 22:48:57 69° NNW 22:55:27 10° WSW
Okean 3 Rocket 3.6 22:47:02 28° SSW 22:49:20 85° W 22:53:48 10° N
Cosmos 1606 2.8 22:46:55 10° NNW 22:50:47 67° W 22:52:19 34° S
Cosmos 2278 Rocket 3.7 22:47:37 10° NW 22:52:00 23° WSW 22:54:59 16° SW
Cosmos 2297 3.8 22:48:15 10° NNW 22:53:58 68° WSW 22:57:11 26° S
Cosmos 304 Rocket 4.3 22:50:04 10° NNW 22:54:50 54° ENE 22:58:04 20° SE
Cosmos 2218 Rocket 4.0 22:50:54 25° S 22:54:51 77° E 23:01:10 10° NNE
Cosmos 2228 Rocket 4.1 22:52:17 10° N 22:56:38 40° ENE 22:59:19 20° SE
Cosmos 1420 Rocket 4.0 22:52:29 10° NNW 22:57:46 72° WSW 23:00:36 28° S
ATLAS 5 CENTAUR R/B 4.3 22:54:28 10° WNW 22:58:09 23° NNW 23:02:17 10° NE
Cosmos 2366 rocket 4.0 22:56:35 25° S 23:00:32 80° E 23:06:55 10° NNE
Cosmos 1943 Rocket 2.3 22:54:58 10° NNW 23:00:41 74° ENE 23:04:40 20° SE
Lacrosse 5 rocket 2.0 22:56:55 10° NW 23:00:54 52° NNE 23:04:38 10° E
Cosmos 1633 3.3 23:01:11 31° SE 23:02:16 39° E 23:05:42 10° NNE
SL-16 R/B 2.2 23:00:47 24° SSW 23:04:15 76° ESE 23:09:57 10° NNE
Cosmos 2056 Rocket 4.5 23:00:22 10° NW 23:05:18 37° WSW 23:07:58 23° SSW
Cosmos 1959 Rocket 4.5 23:06:20 25° S 23:10:09 87° W 23:16:25 10° N
YAOGAN 11 4.1 23:09:09 30° SSE 23:11:17 85° ENE 23:15:44 10° NNW
Cosmos 1743 Rocket 4.0 23:12:36 29° SSE 23:14:26 50° E 23:18:40 10° NNE
Cosmos 332 Rocket 3.8 23:14:22 10° NNW 23:19:09 70° WSW 23:21:28 30° S
Cosmos 1048 Rocket 4.4 23:19:32 27° SSE 23:22:05 49° ESE 23:27:09 10° NNE
USA 267 4.4 23:21:24 21° SSW 23:23:32 24° SW 23:28:43 10° WNW
Meteor 2-3 Rocket 3.7 23:21:02 26° SSW 23:24:21 85° WNW 23:30:07 10° NNE
Helios 1A 3.2 23:24:53 32° SSW 23:26:33 55° WSW 23:30:40 10° NNW
Cosmos 405 2.9 23:24:26 10° NNW 23:28:00 82° WSW 23:29:08 41° S
Cosmos 1452 Rocket 3.8 23:27:22 10° NNW 23:32:31 55° WSW 23:35:07 28° S
CZ-4C R/B 3.0 23:26:57 10° NW 23:33:57 78° NE 23:42:07 10° SE
Meteor 2-6 Rocket 4.3 23:28:57 10° N 23:34:28 72° ENE 23:37:54 23° SSE
COSMOS 2455 2.9 23:28:42 10° NW 23:34:41 65° WSW 23:38:24 24° SSE
PSLV R/B 3.8 23:30:33 10° NNE 23:34:44 56° ESE 23:36:34 31° SSE
Cosmos 1825 4.4 23:32:56 11° WSW 23:35:31 18° WNW 23:38:13 10° NNW
Cosmos 1340 3.3 23:34:23 28° SW 23:36:02 48° WNW 23:39:42 10° N
Cosmos 1110 Rocket 4.1 23:31:14 10° NNW 23:36:32 75° ENE 23:40:16 20° SSE
ALOS 2 4.2 23:35:27 18° SW 23:37:15 24° W 23:40:50 10° NW
Cosmos 1408 Rocket 4.0 23:35:56 26° SW 23:38:10 53° WNW 23:42:30 10° N
Cosmos 1151 Rocket 4.3 23:34:27 10° NNW 23:38:13 29° W 23:40:03 21° SW
SL-16 R/B 3.9 23:33:08 10° ESE 23:38:41 35° ENE 23:44:17 10° N
Cosmos 1603 4.3 23:36:25 25° SSE 23:39:17 44° ESE 23:44:42 10° NE
Cosmos 1727 Rocket 4.3 23:38:15 10° NNW 23:44:20 57° W 23:48:04 24° SSW
APEX 3.9 23:42:27 10° NW 23:44:22 23° W 23:44:22 23° W
Resurs 1-4 Rocket 4.0 23:41:08 10° NE 23:44:58 20° E 23:48:44 10° SE
Cosmos 2369 Rocket 2.1 23:39:35 10° NNW 23:45:12 77° WSW 23:48:49 23° SSE
Cosmos 1500 Rocket 3.5 23:44:49 31° SSW 23:46:54 83° W 23:51:20 10° N
Cosmos 44 3.5 23:43:38 16° WSW 23:46:57 57° NW 23:51:24 10° NE
Cosmos 371 Rocket 4.4 23:44:23 10° NW 23:48:36 30° WSW 23:50:25 23° SW
SeaSat 1 4.0 23:45:05 10° NE 23:49:00 23° ESE 23:51:20 17° SE
ISS -1.5 23:51:00 14° ESE 23:51:00 14° ESE 23:52:06 10° ESE
Helios 1B rocket 2.4 23:49:23 10° NNE 23:53:32 73° ESE 23:55:23 31° S
